Visibility
12.4 13.4 15.0 6.9 15.0 15.0 0.3 12.1 6.7 15.0 15.0 12.4 15.0 15.0 15.0 15.0 15.0 15.0 15.0 15.0 15.0 15.0 15.0 15.0 15.0 15.0 15.0 15.0 15.0 15.0 15.0 15.0 15.0 15.0 15.0 15.0 15.0 15.0 7.5 15.0 15.0 15.0 15.0 15.0
6.3 11.7 6.1 8.9 15.0 15.0 2.5 1.9 15.0 15.0 15.0 15.0 15.0 15.0 15.0 15.0 15.0 15.0 15.0 15.0 15.0 15.0 15.0 15.0 15.0 15.0 15.0 15.0 15.0 15.0 15.0 15.0 15.0 15.0 12.3 12.3 15.0 15.0 15.0 15.0 15.0 15.0 15.0 15.0
13.4 15.0 7.9 12.9 6.4 15.0 9.0 14.6 9.4 3.8 14.9 15.0 15.0 15.0 15.0 15.0 15.0 15.0 15.0 15.0 15.0 15.0 15.0 15.0 15.0 15.0 15.0 15.0 15.0 15.0 15.0 15.0 15.0 15.0 15.0 15.0 15.0 15.0 15.0 15.0 15.0 15.0 15.0 15.0
15.0 15.0 5.8 9.4 11.4 15.0 2.5 14.9 15.0 12.5 0.1 6.5 15.0 15.0 15.0 15.0 15.0 15.0 15.0 15.0 15.0 15.0 15.0 15.0 15.0 15.0 15.0 15.0 15.0 15.0 15.0 15.0 15.0 15.0 15.0 15.0 15.0 15.0 15.0 15.0 15.0 15.0 15.0 15.0
15.0 13.3 5.4 7.5 14.9 15.0 2.5 13.3 15.0 15.0 15.0 15.0 15.0 15.0 15.0 15.0 15.0 15.0 15.0 15.0 15.0 15.0 15.0 15.0 15.0 15.0 15.0 15.0 15.0 15.0 15.0 15.0 15.0 15.0 15.0 15.0 15.0 15.0 15.0 15.0 15.0 15.0 15.0 15.0
15.0 15.0 6.1 5.4 8.3 14.0 10.6 15.0 15.0 15.0 15.0 15.0 15.0 15.0 15.0 15.0 15.0 15.0 15.0 15.0 15.0 15.0 15.0 15.0 15.0 15.0 15.0 15.0 15.0 15.0 15.0 15.0 15.0 15.0 15.0 15.0 15.0 15.0 15.0 15.0 15.0 15.0 15.0 15.0
15.0 13.1 9.7 4.1 15.0 15.0 15.0 15.0 15.0 10.6 15.0 15.0 15.0 15.0 15.0 15.0 15.0 15.0 15.0 15.0 15.0 15.0 15.0 15.0 15.0 15.0 15.0 15.0 14.3 15.0 15.0 15.0 15.0 15.0 15.0 15.0 15.0 15.0 15.0 15.0 15.0 15.0 15.0 15.0
15.0 10.2 6.7 5.5 15.0 14.1 15.0 15.0 15.0 10.6 0.0 15.0 15.0 15.0 15.0 15.0 15.0 15.0 15.0 15.0 15.0 15.0 15.0 14.3 7.2 13.5 8.8 14.0 8.0 15.0 15.0 15.0 15.0 15.0 15.0 15.0 15.0 15.0 15.0 15.0 15.0 15.0 15.0 15.0
15.0 4.1 7.1 15.0 14.1 14.8 15.0 15.0 12.9 0.1 12.9 15.0 15.0 15.0 15.0 15.0 15.0 15.0 11.9 15.0 15.0 15.0 15.0 15.0 8.8 14.6 15.0 15.0 15.0 15.0 15.0 15.0 15.0 1.0 5.2 15.0 15.0 15.0 15.0 15.0 15.0 15.0 15.0 15.0
5.9 7.2 14.6 8.7 13.4 11.2 15.0 12.1 11.4 0.3 0.1 9.0 15.0 15.0 15.0 15.0 15.0 11.5 11.3 5.8 15.0 5.4 0.0 0.0 11.9 15.0 15.0 15.0 15.0 15.0 13.6 9.7 14.0 15.0 0.9 15.0 15.0 15.0 15.0 15.0 15.0 15.0 15.0 15.0
7.3 10.9 9.5 14.9 15.0 11.2 13.8 11.3 6.3 0.1 0.7 15.0 15.0 15.0 15.0 15.0 15.0 15.0 15.0 15.0 15.0 8.7 0.1 0.1 11.5 9.6 15.0 15.0 15.0 15.0 15.0 10.1 10.6 2.7 6.5 9.2 15.0 15.0 15.0 15.0 15.0 15.0 15.0 15.0
13.2 15.0 15.0 15.0 15.0 11.9 15.0 5.4 8.4 13.0 0.1 0.8 15.0 15.0 15.0 15.0 15.0 15.0 15.0 15.0 15.0 14.4 1.5 0.0 0.1 1.5 0.6 15.0 15.0 15.0 15.0 14.2 15.0 14.9 15.0 15.0 15.0 15.0 15.0 15.0 15.0 15.0 15.0 15.0
15.0 15.0 15.0 15.0 15.0 15.0 15.0 15.0 11.4 11.9 0.2 6.0 9.7 10.6 15.0 15.0 15.0 15.0 15.0 15.0 15.0 15.0 15.0 4.5 0.3 0.2 15.0 4.2 15.0 15.0 15.0 15.0 15.0 15.0 15.0 15.0 15.0 15.0 15.0 15.0 15.0 15.0 15.0 15.0
15.0 15.0 15.0 15.0 15.0 15.0 15.0 7.7 15.0 0.9 0.2 0.0 4.5 7.5 15.0 10.3 15.0 15.0 15.0 15.0 11.9 15.0 15.0 0.1 0.1 8.0 15.0 15.0 15.0 15.0 15.0 15.0 15.0 15.0 15.0 15.0 15.0 15.0 15.0 15.0 15.0 15.0 15.0 15.0
15.0 15.0 15.0 15.0 15.0 15.0 12.2 6.9 13.7 2.8 0.1 0.1 4.1 15.0 15.0 15.0 6.4 15.0 15.0 11.7 2.9 15.0 15.0 0.0 0.0 15.0 15.0 15.0 15.0 15.0 15.0 15.0 15.0 15.0 15.0 15.0 15.0 15.0 15.0 15.0 15.0 15.0 15.0 15.0
15.0 15.0 15.0 15.0 14.3 13.8 2.9 2.2 8.1 8.2 9.1 0.1 0.0 8.2 9.2 15.0 14.8 5.7 15.0 15.0 2.8 9.9 3.1 5.8 15.0 15.0 15.0 0.6 15.0 15.0 15.0 15.0 15.0 15.0 15.0 15.0 15.0 15.0 15.0 15.0 15.0 15.0 15.0 15.0
15.0 15.0 15.0 13.6 15.0 13.0 7.5 3.4 0.9 5.7 14.2 0.1 0.0 0.1 15.0 14.6 13.3 8.0 7.8 8.7 13.5 8.4 15.0 3.6 15.0 15.0 13.1 2.0 3.4 15.0 15.0 15.0 15.0 15.0 15.0 15.0 15.0 15.0 15.0 15.0 15.0 15.0 15.0 15.0
15.0 15.0 14.1 15.0 5.6 1.3 15.0 14.9 12.5 7.7 4.0 1.5 0.0 0.0 0.1 15.0 15.0 0.1 15.0 12.6 9.9 14.0 5.5 5.8 7.1 7.7 0.1 7.9 15.0 15.0 15.0 15.0 15.0 15.0 15.0 15.0 15.0 15.0 15.0 15.0 15.0 15.0 15.0 15.0
7.3 15.0 4.4 0.2 0.3 0.1 2.1 1.7 15.0 15.0 11.9 0.0 0.0 0.0 0.1 15.0 11.6 0.6 15.0 11.2 0.0 0.4 0.0 6.3 13.3 11.3 15.0 15.0 15.0 15.0 15.0 15.0 15.0 15.0 15.0 15.0 15.0 15.0 15.0 15.0 15.0 15.0 15.0 15.0
4.7 4.3 0.1 0.1 0.1 2.6 0.4 9.3 15.0 14.6 0.0 0.8 0.0 0.2 0.1 0.9 0.1 0.0 0.0 0.0 0.0 0.0 0.3 15.0 0.1 0.6 15.0 15.0 15.0 15.0 15.0 15.0 15.0 15.0 15.0 15.0 15.0 15.0 15.0 15.0 15.0 15.0 15.0 15.0
3.8 0.3 0.1 0.1 0.6 11.2 0.6 0.0 0.0 0.1 0.0 0.4 12.6 7.7 0.2 4.7 0.0 0.0 0.0 0.0 0.0 0.0 15.0 11.2 1.6 0.1 15.0 15.0 13.8 15.0 15.0 15.0 15.0 15.0 15.0 15.0 15.0 15.0 15.0 15.0 15.0 15.0 15.0 15.0
2.4 8.5 14.7 15.0 5.6 0.1 0.1 0.1 0.1 6.6 2.9 6.4 0.0 6.4 15.0 0.2 11.7 0.0 0.0 0.0 0.0 0.4 13.4 0.4 0.3 2.1 15.0 13.8 15.0 15.0 15.0 15.0 15.0 15.0 15.0 15.0 15.0 15.0 15.0 15.0 15.0 15.0 15.0 15.0
15.0 1.8 0.0 0.1 0.0 0.0 0.1 0.1 1.1 6.8 0.0 0.0 0.0 0.0 0.1 0.5 5.4 0.0 0.0 0.1 0.1 15.0 0.1 7.0 10.2 14.8 15.0 15.0 15.0 15.0 15.0 15.0 15.0 15.0 15.0 15.0 15.0 15.0 15.0 15.0 15.0 15.0 15.0 15.0
0.0 0.0 0.1 0.0 0.1 0.0 0.0 0.0 0.0 0.0 0.0 0.1 0.1 0.0 0.0 0.0 0.1 0.0 1.3 0.1 14.4 2.8 1.3 5.3 2.2 15.0 15.0 15.0 15.0 15.0 15.0 15.0 15.0 15.0 15.0 15.0 15.0 15.0 15.0 15.0 15.0 15.0 15.0 15.0
0.0 0.1 0.0 0.0 0.0 0.0 0.0 0.0 0.0 0.0 0.1 0.4 0.0 0.0 0.1 0.0 0.0 0.1 0.1 0.0 7.4 15.0 8.3 0.1 15.0 15.0 15.0 15.0 15.0 15.0 15.0 15.0 15.0 15.0 15.0 15.0 15.0 15.0 15.0 15.0 15.0 15.0 15.0 15.0
0.1 0.0 0.0 0.0 0.0 0.0 0.0 0.0 0.0 0.1 0.0 0.0 0.2 0.6 9.9 0.0 0.1 0.8 15.0 15.0 5.6 0.1 0.0 4.8 15.0 15.0 15.0 15.0 15.0 15.0 15.0 15.0 15.0 15.0 15.0 15.0 15.0 15.0 15.0 15.0 15.0 15.0 15.0 15.0
0.0 0.1 0.1 0.0 0.0 0.0 0.0 0.0 0.0 0.2 0.0 0.0 0.1 15.0 1.3 13.3 15.0 3.2 0.1 0.0 0.0 0.0 0.1 15.0 15.0 15.0 15.0 15.0 15.0 15.0 15.0 15.0 15.0 15.0 15.0 15.0 15.0 15.0 15.0 15.0 15.0 15.0 15.0 15.0